Weather Roundup
Issued by NWS

Home | Current Version | Previous Version | Graphics & Text | Print | Product List | Glossary Off
Versions: 1 2 3 4 5 6 7 8 9 10 11 12 13 14 15 16 17 18 19 20 21 22 23 24 25 26 27 28 29 30 31 32 33 34 35 36 37 38 39 40 41 42 43 44 45 46 47 48 49 50

628
NZUS93 KARX 231759
HRRWXR

CURRENT HOURLY OBSERVATIONS ACROSS
MUCH OF THE UPPER MISSISSIPPI VALLEY
NATIONAL WEATHER SERVICE LA CROSSE WI
1200 PM CST MON JAN 23 2017


...SOUTHEAST MINNESOTA...


CITY           SKY/WX    TMP DP  RH WIND       PRES   REMARKS
ROCHESTER      CLOUDY    32  32 100 W8        29.83S FOG     WCI  25
ROCHESTER/MAYO CLOUDY    35  34  99 W7        29.83S WCI  29
WINONA         CLOUDY    36  34  93 NW3       29.83F
AUSTIN         CLOUDY    34  28  80 W8        29.84F WCI  27
ALBERT LEA     CLOUDY    34  30  86 W3        29.85S
DODGE CENTER   PTSUNNY   32  30  93 CALM      29.82F FOG
PRESTON        CLOUDY    33  31  92 W9        29.83F FOG     WCI  25
OWATONNA       CLOUDY    32  28  86 W7        29.84F WCI  26
FARIBAULT      NOT AVBL
$$

...ELSEWHERE IN MINNESOTA...


CITY           SKY/WX    TMP DP  RH WIND       PRES   REMARKS
MINNEAPOLIS    CLOUDY    34  29  82 W8        29.83F WCI  27
INTNL FALLS    CLOUDY    34  30  85 SW7       29.75S WCI  28
DULUTH         CLOUDY    36  32  85 W5        29.75S WCI  32
RED WING       DRIZZLE   36  34  93 W6        29.83S WCI  31
REDWOOD FALLS  CLOUDY    33  29  85 W6        29.85F WCI  28
MANKATO        CLOUDY    33  28  81 W6        29.86F WCI  28
WORTHINGTON    CLOUDY    31  29  92 NW6       29.84  WCI  25
FAIRMONT       CLOUDY    32  29  88 NW7       29.86F WCI  26
$$

...SOUTHWEST WISCONSIN...


CITY           SKY/WX    TMP DP  RH WIND       PRES   REMARKS
LA CROSSE      CLOUDY    39  34  82 CALM      29.82S
PRAIRIE DU CHI CLOUDY    37  33  86 CALM      29.84S
BOSCOBEL       CLOUDY    41  35  79 SW5       29.82S
LONE ROCK      NOT AVBL
PLATTEVILLE    CLOUDY    37  37  99 NW6       29.81S WCI  33
FORT MC COY    CLOUDY    35  34  97 W3        29.82S
MAUSTON-NEW LI CLOUDY    36  36  99 NW6       29.79F FOG     WCI  31
VIROQUA        CLOUDY    34  34 100 W7        29.80S WCI  28
WIS DELLS      CLOUDY    36  35  98 NW3       29.78F
$$

...ELSEWHERE IN WISCONSIN...


CITY           SKY/WX    TMP DP  RH WIND       PRES   REMARKS
MILWAUKEE      CLOUDY    41  36  82 NW8       29.76F
MADISON        CLOUDY    39  35  86 NW5       29.79F
GREEN BAY      CLOUDY    38  36  92 NW7       29.77F WCI  33
EAU CLAIRE     CLOUDY    34  34 100 W6        29.81R FOG     WCI  29
BLACK RVR FLS  CLOUDY    36  36 100 W3        29.81R
MEDFORD        FOG       33  33 100 W5        29.76F VSB<1/4 WCI  28
WAUSAU         CLOUDY    34  33  96 W5        29.75F WCI  30
WIS RAPIDS     CLOUDY    35  35 100 NW5       29.79F WCI  31
MARSHFIELD     CLOUDY    34  33  96 NW6       29.77S FOG     WCI  29
RICE LAKE      CLOUDY    34  34 100 CALM      29.81F
$$

...NORTHEAST IOWA...


CITY           SKY/WX    TMP DP  RH WIND       PRES   REMARKS
WATERLOO       CLOUDY    33  29  85 W5        29.86F WCI  29
DUBUQUE        CLOUDY    37  34  89 N7        29.81F WCI  32
DECORAH        CLOUDY    36  32  87 VRB7      29.82S WCI  30
MASON CITY     CLOUDY    33  28  81 NW7       29.86F WCI  27
CHARLES CITY   CLOUDY    34  34 100 W7        29.85F WCI  28
OELWEIN        CLOUDY    34  34 100 NW12      29.84F WCI  25
$$

...ELSEWHERE IN IOWA...


CITY           SKY/WX    TMP DP  RH WIND       PRES   REMARKS
DES MOINES     CLOUDY    33  29  85 N7        29.89F WCI  27
IOWA CITY      CLOUDY    38  33  82 W10       29.87F WCI  31
FORT DODGE     CLOUDY    34  27  75 N3        29.86F
MARSHALLTOWN   CLOUDY    32  30  92 NW7       29.86F WCI  26
CEDAR RAPIDS   MIX PCPN  36  33  89 W9        29.84F WCI  29
$$

...NORTHERN ILLINOIS...


CITY           SKY/WX    TMP DP  RH WIND       PRES   REMARKS
CHICAGO-OHARE  CLOUDY    40  36  86 N7        29.75F
CHICAGO-MIDWAY CLOUDY    41  34  76 N8        29.76F
MOLINE         CLOUDY    40  35  83 W10       29.82F WCI  33
ROCKFORD       CLOUDY    43  36  76 N12       29.79F
PEORIA         CLOUDY    41  36  82 NW8       29.81F
$$

NOTE: "FAIR" INDICATES FEW OR NO CLOUDS BELOW 12,000 FEET WITH NO
SIGNIFICANT WEATHER AND/OR OBSTRUCTIONS TO VISIBILITY. WIND
SPEEDS ARE IN MILES-PER-HOUR.




USA.gov is the U.S. government's official web portal to all federal, state and local government web resources and services.